Weather History for Anchorage Merrill, AK

Change the Weather History Date:

Saturday, February 23, 2013

  Actual Average Record
Temperature  
Mean Temperature 22 °F -  
Max Temperature 25 °F 30 °F 28 °F (2014)
Min Temperature 19 °F 17 °F 3 °F (2014)
Degree Days  
Heating Degree Days 43    
Moisture  
Dew Point 17 °F    
Average Humidity 81    
Maximum Humidity 91    
Minimum Humidity 65    
Precipitation  
Precipitation 0.02 in - - ()
Sea Level Pressure  
Sea Level Pressure 29.26 in    
Wind  
Wind Speed 4 mph (North)    
Max Wind Speed 8 mph    
Max Gust Speed -    
Visibility 8 miles    
Events Snow    
Averages and records for this station are not official NWS values.
T = Trace of Precipitation, MM = Missing Value Source: NWS Daily Summary

Daily Weather History Graph

Daily Weather History Graph

Search for Another Location

Airport:

Trip Planner

Search our weather history database for the weather conditions in past years. The results will help you decide how hot, cold, wet, or windy it might be!

Date:

Astronomy

Feb. 23, 2013 Rise Set
Actual Time 8:16 AM AKST 6:09 PM AKST
Civil Twilight 7:32 AM AKST 6:53 PM AKST
Nautical Twilight 6:42 AM AKST 7:43 PM AKST
Astronomical Twilight 5:52 AM AKST 8:34 PM AKST
Moon 4:14 PM AKST (2/23) 7:05 AM AKST (2/23)
Length of Visible Light 11h 21m
Length of Day
9h 52m
Waxing Gibbous, 96% of the Moon is Illuminated
Feb 23
Waxing Gibbous
Feb 25
Full
Mar 4
Last Quarter
Mar 11
New
Mar 19
First Quarter

Hourly Weather History & Observations

Time (AKST) Temp. Windchill Dew Point Humidity Pressure Visibility Wind Dir Wind Speed Gust Speed Precip Events Conditions
12:53 AM 19.0 °F 11.1 °F 10.0 °F 68% 29.37 in 10.0 mi NNE 5.8 mph - N/A   Partly Cloudy
1:53 AM 21.0 °F - 12.0 °F 68% 29.35 in 10.0 mi Calm Calm - N/A   Scattered Clouds
3:53 AM 19.9 °F - 14.0 °F 78% 29.32 in 10.0 mi Calm Calm - N/A   Mostly Cloudy
4:53 AM 19.9 °F 14.9 °F 17.1 °F 89% 29.31 in 10.0 mi North 3.5 mph - N/A   Overcast
5:53 AM 19.0 °F 11.1 °F 15.1 °F 85% 29.29 in 10.0 mi North 5.8 mph - N/A   Overcast
6:53 AM 19.0 °F 13.9 °F 15.1 °F 85% 29.28 in 10.0 mi North 3.5 mph - N/A   Overcast
7:53 AM 19.0 °F 11.1 °F 15.1 °F 85% 29.25 in 10.0 mi North 5.8 mph - N/A   Overcast
8:53 AM 19.0 °F 9.0 °F 15.1 °F 85% 29.23 in 10.0 mi North 8.1 mph - N/A   Overcast
9:53 AM 19.9 °F 10.1 °F 15.1 °F 81% 29.21 in 10.0 mi NNW 8.1 mph - N/A   Overcast
10:53 AM 19.9 °F 14.9 °F 14.0 °F 78% 29.20 in 10.0 mi NNE 3.5 mph - N/A   Mostly Cloudy
11:53 AM 19.9 °F 11.1 °F 14.0 °F 78% 29.18 in 10.0 mi North 6.9 mph - N/A   Mostly Cloudy
12:53 PM 21.0 °F 13.4 °F 14.0 °F 74% 29.18 in 10.0 mi NW 5.8 mph - N/A   Mostly Cloudy
1:53 PM 21.9 °F 15.7 °F 15.1 °F 75% 29.18 in 10.0 mi NW 4.6 mph - N/A   Mostly Cloudy
2:53 PM 24.1 °F 19.7 °F 14.0 °F 65% 29.16 in 10.0 mi NNE 3.5 mph - N/A   Mostly Cloudy
3:53 PM 25.0 °F 16.3 °F 16.0 °F 69% - 10.0 mi NNE 8.1 mph - N/A   Overcast
4:53 PM 25.0 °F 19.3 °F 17.1 °F 72% - 10.0 mi North 4.6 mph - N/A   Overcast
5:45 PM 24.8 °F 19.1 °F 17.6 °F 74% - 2.0 mi NE 4.6 mph - 0.00 in Snow Light Snow
5:53 PM 24.1 °F 18.2 °F 19.9 °F 84% - 1.5 mi ENE 4.6 mph - 0.00 in Snow Light Snow
6:02 PM 24.8 °F - 21.2 °F 86% - 3.0 mi Calm Calm - 0.00 in Snow Light Snow
6:22 PM 24.8 °F 20.5 °F 21.2 °F 86% 29.20 in 1.2 mi NE 3.5 mph - 0.00 in Snow Light Snow
6:53 PM 24.1 °F 19.7 °F 21.0 °F 88% 29.21 in 1.2 mi NNE 3.5 mph - 0.00 in Snow Light Snow
6:56 PM 24.8 °F 19.1 °F 21.2 °F 86% - 1.0 mi NNE 4.6 mph - 0.00 in Snow Light Snow
7:20 PM 24.8 °F - 19.4 °F 80% - 3.0 mi Calm Calm - 0.00 in   Overcast
7:53 PM 24.1 °F - 21.9 °F 91% - 7.0 mi Calm Calm - 0.00 in   Mostly Cloudy
8:53 PM 24.1 °F 19.7 °F 21.9 °F 91% - 4.0 mi North 3.5 mph - 0.01 in   Mostly Cloudy
9:37 PM 24.8 °F - 21.2 °F 86% 29.30 in 10.0 mi Calm Calm - 0.00 in Snow Light Snow
9:53 PM 24.1 °F - 21.0 °F 88% 29.31 in 10.0 mi Calm Calm - 0.00 in Snow Light Snow
10:43 PM 24.8 °F - 21.2 °F 86% 29.31 in 8.0 mi Calm Calm - 0.01 in Snow Light Snow
10:53 PM 24.1 °F 19.7 °F 21.9 °F 91% 29.31 in 8.0 mi NNE 3.5 mph - 0.01 in Snow Light Snow
11:53 PM 24.1 °F - 21.0 °F 88% 29.33 in 10.0 mi Calm Calm - 0.00 in   Overcast